Cloud_Cover
39 100 29 10 100 13 5 11 100 100 51 96 21 31 19 96 97 100 100 100 100 87 93 91 98 81 100 100 100 100 100 100 100 100 100 100 100 100 100 100 100 100 100 100
100 100 52 5 88 14 23 100 100 99 3 23 4 0 5 24 65 100 78 58 66 100 100 59 43 90 100 69 89 89 100 100 100 100 100 100 100 100 100 100 100 100 100 100
100 100 16 87 96 60 97 79 100 100 6 5 3 3 5 5 55 44 80 5 1 65 98 98 98 100 100 88 100 100 100 100 100 100 100 100 100 100 100 100 100 100 100 100
97 100 30 98 100 22 57 100 100 100 11 0 5 13 65 26 7 5 3 63 4 0 8 100 80 77 100 86 42 30 100 100 100 100 100 100 100 100 100 100 100 100 100 100
100 100 82 100 100 84 79 100 100 100 41 0 1 2 96 5 4 7 19 41 4 4 22 79 100 30 99 48 64 5 81 86 99 100 100 100 100 100 100 100 100 100 100 100
100 100 65 100 100 45 100 100 100 100 37 0 2 5 90 69 5 32 22 5 12 5 21 74 100 100 100 99 76 100 100 72 55 78 50 25 99 90 45 77 5 3 16 76
100 100 93 100 99 96 100 100 100 100 48 1 55 74 5 62 44 40 5 5 5 5 4 60 60 56 93 29 100 100 87 100 100 100 100 32 5 7 0 1 5 5 5 67
100 100 100 100 100 100 100 100 100 100 40 33 100 76 1 3 16 7 5 26 5 5 5 5 5 1 2 5 4 22 98 97 48 5 89 100 33 5 5 5 4 5 5 60
30 100 100 92 100 54 100 100 100 100 53 100 89 100 11 9 11 5 2 3 5 5 5 56 10 48 12 18 5 5 0 0 1 1 4 5 43 5 5 25 14 98 39 84
22 59 100 100 100 72 100 100 100 100 69 61 100 99 75 83 60 4 0 0 2 1 18 65 90 91 11 5 5 5 5 5 5 5 10 12 5 46 70 90 73 100 100 100
80 85 98 98 83 100 100 100 100 100 98 18 100 67 70 52 72 25 1 0 5 0 2 5 5 5 5 5 5 5 4 4 2 67 99 89 78 82 100 100 100 100 100 100
86 100 100 100 100 100 100 100 100 100 96 87 69 66 5 8 12 38 52 5 0 0 0 0 0 2 7 5 92 100 1 98 100 100 100 100 100 100 100 100 100 100 100 100
100 79 100 96 98 100 96 99 100 100 100 100 52 8 95 100 97 14 13 2 1 0 0 0 0 0 0 2 4 64 98 100 100 100 100 100 100 98 100 100 100 100 100 100
100 91 96 5 77 100 100 100 100 100 100 99 76 16 95 100 55 62 50 56 16 26 0 0 0 0 0 0 47 10 61 100 100 100 100 100 100 100 100 100 100 100 100 100
99 42 96 33 100 100 100 100 98 100 100 99 6 73 5 100 91 81 10 43 71 4 3 0 0 0 2 9 83 98 100 100 98 100 100 100 100 100 100 100 100 100 100 100
94 80 100 100 100 100 100 100 100 100 100 100 100 75 99 100 100 10 26 49 70 48 18 4 0 0 1 7 47 100 100 100 100 100 100 100 100 100 100 100 100 100 100 100
81 100 100 100 100 100 100 87 100 100 100 100 32 57 5 100 97 84 100 21 11 1 3 2 0 0 0 17 37 72 86 99 100 100 100 100 100 100 100 100 98 100 100 100
30 100 100 100 100 63 58 100 100 100 100 100 100 89 99 100 100 100 90 85 80 35 14 20 0 0 7 17 4 10 22 40 69 99 100 100 89 100 100 100 100 100 90 100
62 85 100 100 100 98 100 100 100 100 100 100 100 88 98 100 42 100 100 79 34 5 0 5 5 0 0 3 5 5 0 6 49 88 94 100 100 100 100 100 89 94 34 80
100 100 100 100 100 100 99 100 100 100 100 100 100 100 100 81 95 100 100 73 16 33 7 5 5 5 5 2 4 5 72 100 100 100 100 98 79 56 47 35 21 7 53 86
99 98 100 100 100 100 100 100 100 100 100 100 100 100 88 11 95 100 100 100 96 6 6 5 5 5 5 5 5 5 16 17 4 10 6 83 79 51 98 45 7 21 74 99
75 100 100 100 87 100 100 100 100 100 100 100 100 100 7 47 70 99 100 100 83 100 16 5 5 5 5 5 5 4 0 0 5 5 30 74 2 5 50 98 100 100 100 100
9 99 100 100 100 100 100 100 100 100 100 100 100 99 17 6 98 95 100 100 100 100 6 5 44 86 30 5 5 5 0 2 5 5 20 4 0 1 5 97 100 100 100 60
13 100 100 100 100 100 100 100 100 100 96 97 100 93 51 53 100 100 100 99 93 88 26 6 61 74 22 35 6 5 5 6 15 28 71 8 5 3 11 83 100 95 86 100
100 100 100 100 100 100 100 100 100 100 100 100 74 34 99 7 22 100 100 100 100 100 99 24 71 44 60 41 42 50 33 26 99 100 31 8 5 5 8 52 65 100 93 99
100 100 100 100 100 100 100 100 100 100 100 100 93 84 91 52 10 97 100 98 100 100 99 100 100 84 88 86 100 100 100 100 100 100 67 28 60 35 57 98 100 100 100 100